EDT,Max TemperatureF,Mean TemperatureF,Min TemperatureF,Max Dew PointF,MeanDew PointF,Min DewpointF,Max Humidity, Mean Humidity, Min Humidity, Max Sea Level PressureIn, Mean Sea Level PressureIn, Min Sea Level PressureIn, Max VisibilityMiles, Mean VisibilityMiles, Min VisibilityMiles, Max Wind SpeedMPH, Mean Wind SpeedMPH, Max Gust SpeedMPH,PrecipitationIn, CloudCover, Events, WindDirDegrees
2013-10-1,72,58,43,59,52,45,100,77,53,30.00,29.93,29.86,10,10,9,10,2,22,0.00,2,,148
2013-10-2,80,66,51,61,53,45,100,66,31,29.97,29.86,29.82,10,10,8,15,4,23,0.00,2,,228
2013-10-3,68,57,46,50,46,42,93,68,42,30.12,30.05,29.97,10,10,10,9,2,12,0.00,0,,62
2013-10-4,62,52,42,52,47,43,100,79,57,30.12,30.08,30.05,10,10,10,10,4,18,0.01,5,Rain,343
2013-10-5,64,56,48,44,42,38,80,60,39,30.16,30.12,30.09,10,10,10,13,6,16,T,5,Rain,356
2013-10-6,58,54,49,54,48,39,93,78,63,30.16,30.06,29.93,10,9,2,28,11,37,0.20,6,Rain,158
2013-10-7,75,66,56,64,56,45,100,81,62,29.93,29.75,29.58,10,8,0,28,12,35,0.79,5,Fog-Rain,180
2013-10-8,63,50,37,43,39,31,92,61,30,30.39,30.22,29.90,10,10,10,13,3,21,0.00,1,,281
2013-10-9,63,48,33,46,40,33,100,70,39,30.46,30.40,30.33,10,10,8,15,3,18,0.00,0,,157
2013-10-10,62,49,35,49,43,36,100,78,55,30.33,30.27,30.19,10,10,7,7,1,8,0.00,0,,146
2013-10-11,66,51,36,51,44,37,100,74,48,30.20,30.17,30.14,10,9,2,9,1,12,0.00,0,,39
2013-10-12,70,55,39,54,47,39,100,77,53,30.32,30.25,30.18,10,9,1,14,4,18,0.00,0,,149
2013-10-13,66,55,44,52,49,44,100,82,63,30.38,30.32,30.26,10,10,10,17,6,23,0.00,0,,155
2013-10-14,57,50,43,54,52,45,100,89,77,30.29,30.27,30.24,10,6,0,10,3,14,0.19,7,Fog-Rain,172
2013-10-15,60,50,39,55,46,39,100,88,75,30.29,30.23,30.06,10,4,0,9,2,21,0.00,4,Fog,205
2013-10-16,65,59,53,55,52,51,93,80,67,30.05,29.92,29.77,10,10,10,22,10,28,0.02,3,Rain,162
2013-10-17,67,58,49,55,49,46,100,74,48,29.82,29.77,29.69,10,10,6,12,4,22,0.22,3,Rain,220
2013-10-18,63,55,46,52,45,36,100,74,47,29.87,29.72,29.62,10,10,5,16,4,26,0.19,5,Rain,239
2013-10-19,60,49,38,47,43,39,100,79,57,29.89,29.80,29.61,10,10,9,20,7,29,0.01,3,Rain,169
2013-10-20,59,49,38,47,35,29,85,59,33,29.99,29.80,29.60,10,10,10,17,6,30,T,3,,227
2013-10-21,60,47,33,45,40,33,100,72,44,30.05,29.95,29.81,10,10,9,21,7,25,0.00,3,,171
2013-10-22,56,46,35,44,35,25,82,59,36,29.80,29.73,29.67,10,10,10,20,8,33,T,3,Rain,194
2013-10-23,50,41,32,36,32,29,96,73,50,29.76,29.70,29.63,10,10,10,13,2,15,0.00,3,,313
2013-10-24,46,36,26,32,29,24,92,71,49,29.88,29.75,29.69,10,10,10,14,3,22,T,5,Rain,248
2013-10-25,47,40,32,31,27,24,82,64,45,30.13,30.04,29.89,10,10,10,15,5,24,T,7,Rain,302
2013-10-26,44,37,30,37,33,24,92,79,65,30.11,29.90,29.76,10,10,8,16,5,23,0.10,7,Rain,189
2013-10-27,49,40,31,37,32,28,89,69,49,30.01,29.86,29.73,10,10,10,12,3,21,0.01,5,,248
2013-10-28,46,35,23,39,28,19,82,62,41,30.41,30.17,29.98,10,10,9,20,6,28,0.01,4,Rain,283
2013-10-29,40,30,20,28,23,19,92,73,54,30.50,30.43,30.35,10,10,10,9,2,13,0.00,0,,107
2013-10-30,47,38,28,34,30,24,96,77,58,30.33,30.25,30.19,10,10,10,12,2,16,T,6,,226
2013-10-31,58,45,31,55,42,31,96,91,85,30.20,29.90,29.55,10,9,4,17,7,23,0.12,6,Rain,166